Startpagina
METAR-TAF:

METAR-TAF

Vliegvelden :

Aeropuerto Antonio Roldán Betancourt

Apartadó, Colombia

breedte: 07-49N, lengte: 076-42W, hoogte: 20 m

Actueel weer

Dit bericht is 10 uur en het 11 minuten geleden gemaakt, om 22:00 UTC
Wind 5 kt uit het zuiden
Temperatuur 31°C
Vochtigheid 66%
Druk 1009 hPa
Zicht 10 km of meer
Weinig wolken op 2000 ft
Verspreide wolken op 30000 ft

METAR: SKLC 142200Z 17005KT 9999 FEW020 SCT300 31/24 A2981

Tijdstip: 03:11 (08:11 UTC)


TAF: ontbreekt

Waarnemingen en weersverwachtingen van meer dan 4000 vliegvelden (METAR en TAF).

De beschikbare stations zijn de gele en rode punten op de kaart.

Ga met uw muis naar het station om de naam te zien.

Klik dan om waarnemingen en weersverwachtingen te zien.

kaart wijzigen: klik op de groene knoppen met een zwart kruis om in te zoomen, op de groene knop met een streepje om uit te zoomen of op de groene pijlen voor aangrenzende kaarten.


METAR-TAF: